Showing default

NUSAT-50 (NANCY ROMAN), 60493

Orbit data source: Space-Track

NUSAT-50 (NANCY ROMAN), 60493 is a payload satellite owned by URUGUS S.A. (AR) in SSO that was launched on Fri, 16 Aug 2024 UTC via an FALCON 9 launch vehicle from the Air Force Western Test Range (AFWTR). Payload-class satellites include a variety of spacecraft equipped with specific instruments for various scientific and technological missions. These include communications satellites like Starlink; space stations such as the ISS; scientific satellites like the Hubble; Earth observation satellites from companies like Planet Labs, Umbra, and HawkEye 360; GPS; miniature CubeSats for education and research; and military/defense satellites.

Loading next visibility...
Identifier
60493, 2024-149AB
Orbit
SSO
Last TLE update
16 hours ago
Origin
Manufacturer
URUGUS S.A.
Mission
Operational Commercial Imaging
Bus & Motor
NEWSAT V, Unknown motor
Mass
41.5 kg wet, 38.5 kg dry
Launch date (UTC)
2024-08-16 (11 months ago)
Launch vehicle
FALCON 9
Launch site
Air Force Western Test Range (AFWTR)
Object type
Payload
Rocket body
Debris
Shape & HBR
Box, 0.813 m
Radar Cross Section
0.542 m², Medium (>0.1 m² and < 1m²)

Expand to show TLE details & history

TLE from 16 hours ago
0 NUSAT-50 (NANCY ROMAN)
1 60493U 24149AB  25183.46458585  .00006653  00000-0  24431-3 0  9993
2 60493  97.4093 261.6198 0005733  80.8966 279.2922 15.28252428 48660
Epoch: 2025-07-02T11:09Z
TLE epoch observation values (Epoch: 2025-07-02T11:09:00.217Z)
Latitude
-0.00003°
Longitude
173.62359°
Altitude
483.505 km
Speed
7.624 km/s
True Right ascension
17h 26m 28s
True Declination
0° 00' 00"
Sunlit
Object was in full shadow at epoch
Visualization orbit readout
Latitude
-40.66818°
Longitude
-179.35318°
Altitude
498.59 km
Speed
7.613 km/s
Apparent Right ascension
21h 55m 23s
Apparent Declination
-62° 25' 47"
Sunlit
Object is in full shadow
Visualization observer readout
Local Sidereal Time
14:26:11
Azimuth
142.948° SSE
Elevation
-44.707°
Doppler factor
1
Orbital elements
Apogee altitude
481.922 km
Perigee altitude
474.061 km
Semi-major axis
6,856.128 km
Eccentricity
0.00057
Inclination
97.4093°
RAAN
261.6198°
Arg. of periapsis
80.8966°
True anomaly
Unknown
Mean anomaly
279.2922°
Eccentric anomaly
Unknown
Mean motion
3.82318 °/min
Orbital period
94.16 mins
BSTAR
0.00024431
Loading maneuver chart data...
Loading SW <> Apogee altitude chart data...
Loading historical data...
Loading historical data...
Loading historical data...
Loading historical data...
Loading historical data...
Loading historical data...
Loading historical data...

NUSAT-50 (NANCY ROMAN) Visibility forecast

Observer location: undefined°, undefined°

Span
Click to sort rows by Start time (UTC) header in descending order
Start Az.
Max El. time (UTC)
Max El. Az.
Max El.
End time (UTC)
End Az.
4 mins2025-07-03 04:35:08.328Z116.902° SE2025-07-03 04:37:08.328Z73.619° E22.103°2025-07-03 04:39:08.328Z27.515° NE
5 mins2025-07-03 17:35:08.328Z43.973° NE2025-07-03 17:37:08.328Z94.46° ESE27.559°2025-07-03 17:40:08.328Z159.95° S
|